{"data":{"norad_id":55996,"epoch":"2026-05-24T22:31:22.980288Z","epoch_age_seconds":70527,"freshness":"FRESH","line1":"1 55996U 23042L   26144.93846042 -.00000298  00000+0 -14415-5 0  9998","line2":"2 55996  43.0051 348.7467 0001131 240.0070 120.0669 15.26740636174520","mean_motion":15.26740636,"eccentricity":0.0001131,"inclination_deg":43.0051,"raan_deg":348.7467,"arg_perigee_deg":240.007,"mean_anomaly_deg":120.0669,"bstar":-1.4415e-6,"rev_number":17452,"period_min":94.318574225727,"perigee_km":484.78732069111,"apogee_km":486.33988976802,"semimajor_km":6863.7006052296,"source":"CELESTRAK","updated_at":"2026-05-25T13:38:17.923299Z"}}